Location: Newark
(46.7000°N, 60.6000°W)
Time: 03:53:44
(UTC+00:00)

A-11 Canister half - Pass Details

Date: 29 October 2020
Orbit: 1525 x 1683 km, 47.3° (Epoch: 23 November)

Event Time Altitude Azimuth Distance (km) Brightness Sun altitude
Rises 21:57:01 0° 280° (W) 4,733 13.2 -11.9°
Reaches altitude 10° 22:00:06 10° 280° (W) 3,732 12.3 -12.4°
Maximum altitude 22:09:32 88° 193° (SSW) 1,534 9.0 -14.0°
Enters shadow 22:17:07 17° 105° (ESE) 3,139 10.0 -15.3°
Drops below altitude 10° 22:18:51 10° 105° (ESE) 3,693 - -15.6°
Sets 22:21:53 0° 105° (ESE) 4,680 - -16.1°
